www.pogodaiklimat.ru

Погода и климат >> Архив погоды >> Норвегия >> Стокмаркнес аэропорт


ПОГОДА в Стокмаркнес аэропорту

  • Прогноз погоды в Стокмаркнес аэропорту
  • Монитор погоды в Стокмаркнес аэропорту

АРХИВ ПОГОДЫ в Стокмаркнес аэропорту

Время (UTC), дата Ветер
(напр.,м/с)
 
Видим.   Явления Облачность Т
(С)
Тd
(С)
f
(%)
Тe
(С)
Тes
(С)
Комфортность P
(гПа)
Po
(гПа)
Тmin
(С)
Tmax
(С)
R
(мм)
R24
(мм)
S
(см)
22 13.06 С 3
{9}
н/о н/о +9.0 +6.1 82 +7 +7 1021.9 1021.5
23 13.06 СВ 4
{7}
н/о н/о +8.6 +6.2 85 +5 +5 1021.7 1021.2
00 14.06 СВ 5
{9}
н/о н/о +8.4 +6.1 85 +5 +5 1021.4 1021.0
01 14.06 С 3
{7}
н/о н/о +8.3 +6.0 85 +6 +6 1021.5 1021.0
02 14.06 СВ 4
{7}
н/о н/о +8.5 +6.2 85 +5 +5 1021.3 1020.8
03 14.06 С 2
{7}
н/о н/о +9.4 +6.4 82 +8 +8 1020.9 1020.4
04 14.06 СВ 4
{7}
н/о н/о +9.9 +6.3 78 +7 +7 1020.5 1020.0
05 14.06 СВ 5
{8}
н/о н/о +10.2 +6.6 78 +7 +7 1020.3 1019.8
06 14.06 В 7
{10}
н/о н/о +10.9 +6.7 75 +8 +8 1020.1 1019.6 +8.2 +14.2
07 14.06 В 7
{10}
н/о н/о +11.8 +7.1 73 +9 +9 1020.1 1019.6
08 14.06 В 8
{10}
н/о н/о +12.6 +7.8 73 +10 +10 1020.1 1019.6
09 14.06 В 7
{10}
н/о н/о +13.4 +7.5 67 +11 +11 1020.2 1019.7
10 14.06 В 7
{10}
н/о н/о +13.7 +7.7 67 +11 +11 1020.1 1019.6
11 14.06 В 7
{9}
н/о н/о +13.5 +7.5 67 +11 +11 1020.0 1019.6
12 14.06 В 6
{10}
н/о н/о +14.8 +8.0 64 +13 +13 1019.8 1019.3
13 14.06 В 7
{9}
н/о н/о +14.2 +7.0 62 +12 +12 1019.4 1018.9
14 14.06 В 5
{10}
н/о н/о +15.0 +6.6 57 +14 +14 1019.1 1018.7
15 14.06 СВ 4
{11}
н/о н/о +15.5 +4.3 47 +15 +15 1019.0 1018.6
16 14.06 В 6
{9}
н/о н/о +15.0 +4.2 48 +14 +14 1019.0 1018.5
17 14.06 СВ 6
{9}
н/о н/о +14.9 +3.4 46 +13 +13 1018.8 1018.3
18 14.06 СВ 4
{11}
н/о н/о +13.9 +3.1 48 +13 +13 1018.5 1018.0 +10.7 +16.2
19 14.06 СВ 4
{8}
н/о н/о +11.4 +4.4 62 +9 +9 1018.5 1018.0
20 14.06 СВ 2
{7}
н/о н/о +11.7 +1.6 50 +11 +11 1018.7 1018.2
21 14.06 СВ 4
{6}
н/о н/о +8.9 +4.4 73 +6 +6 1018.4 1018.0
22 14.06 В 3
{6}
н/о н/о +8.9 +3.0 66 +7 +7 1018.6 1018.1
23 14.06 СВ 3
{6}
н/о н/о +8.1 +3.9 75 +6 +6 1018.4 1017.9
00 15.06 СВ 2
{8}
н/о н/о +7.4 +4.2 80 +5 +5 1018.4 1017.9
01 15.06 СВ 3
{6}
н/о н/о +7.3 +3.9 79 +4 +4 1018.5 1018.0
02 15.06 С 2
{4}
н/о н/о +7.8 +3.2 73 +6 +6 1018.5 1018.0
03 15.06 штиль 0
{3}
н/о н/о +8.7 +4.0 72 +8 +8 1018.4 1017.9
04 15.06 В 3
{5}
н/о н/о +8.7 +5.2 79 +6 +6 1018.3 1017.8
05 15.06 В 3
{7}
н/о н/о +9.4 +5.6 77 +7 +7 1018.3 1017.9
06 15.06 В 5
{7}
н/о н/о +9.8 +5.6 75 +7 +7 1018.3 1017.8 +6.3 +14.1
07 15.06 В 4
{7}
н/о н/о +10.8 +6.0 72 +8 +8 1018.4 1017.9
08 15.06 В 4
{5}
н/о н/о +11.8 +6.2 69 +10 +10 1018.6 1018.1
09 15.06 В 3
{5}
н/о н/о +12.1 +6.2 67 +11 +11 1018.7 1018.2
10 15.06 ЮВ 3
{4}
н/о н/о +13.0 +6.0 62 +12 +12 1018.6 1018.2
11 15.06 ЮВ 2
{3}
н/о н/о +13.7 +6.6 62 +13 +13 1018.7 1018.2
12 15.06 Ю 3
{7}
н/о н/о +13.7 +6.7 63 +13 +13 1018.6 1018.1
13 15.06 ЮЗ 3
{4}
н/о н/о +14.2 +7.2 63 +13 +13 1018.6 1018.1
14 15.06 З 6
{8}
н/о н/о +14.0 +7.5 65 +12 +12 1018.3 1017.8
15 15.06 З 7
{10}
н/о н/о +13.1 +8.2 72 +11 +11 1018.4 1018.0
16 15.06 З 5
{9}
н/о н/о +12.7 +7.3 70 +11 +11 1018.6 1018.1
17 15.06 ЮЗ 6
{7}
н/о н/о +11.6 +7.3 75 +9 +9 1018.6 1018.2
18 15.06 ЮЗ 4
{10}
н/о н/о +11.0 +6.7 75 +9 +9 1018.7 1018.2 +9.7 +14.9
19 15.06 ЮВ 2
{4}
н/о н/о +10.0 +6.8 80 +9 +9 1018.4 1017.9
20 15.06 ЮВ 1
{3}
н/о н/о +9.6 +6.0 78 +9 +9 1018.2 1017.7
21 15.06 З 4
{5}
н/о н/о +8.5 +6.3 86 +5 +5 1018.2 1017.7
22 15.06 З 4
{6}
н/о н/о +8.1 +6.3 88 +5 +5 1018.1 1017.7
23 15.06 З 4
{5}
н/о н/о +8.0 +6.3 89 +5 +5 1018.5 1018.0
00 16.06 З 3
{6}
н/о н/о +7.8 +6.1 89 +5 +5 1018.2 1017.7
01 16.06
{3}
н/о н/о +7.7 +5.9 88 1017.9 1017.5
02 16.06 СЗ 1
{4}
н/о н/о +7.5 +5.9 90 +7 +7 1017.8 1017.3
03 16.06 СЗ 1
{2}
н/о н/о +7.5 +6.0 90 +7 +7 1017.4 1016.9
04 16.06 В 2
{3}
н/о н/о +7.3 +5.7 90 +5 +5 1016.9 1016.4
05 16.06 В 3
{4}
н/о н/о +7.2 +5.5 89 +4 +4 1016.7 1016.2
06 16.06 В 3
{5}
н/о н/о +7.8 +5.4 85 +5 +5 1016.6 1016.1 +7.0 +11.5
07 16.06 В 4
{5}
н/о н/о +8.7 +5.7 81 +6 +6 1016.3 1015.8
08 16.06 В 5
{6}
н/о н/о +9.9 +6.1 77 +7 +7 1016.0 1015.5
09 16.06 В 5
{7}
н/о н/о +10.4 +6.3 76 +8 +8 1015.8 1015.3
10 16.06 В 5
{6}
н/о н/о +10.8 +6.5 75 +8 +8 1015.2 1014.7
11 16.06 В 5
{7}
н/о н/о +11.1 +6.4 73 +8 +8 1014.6 1014.1
12 16.06 В 5
{8}
н/о н/о +12.5 +7.2 70 +10 +10 1014.3 1013.8
13 16.06 В 4
{7}
н/о н/о +12.7 +7.2 69 +11 +11 1014.0 1013.5
14 16.06 В 5
{8}
н/о н/о +12.4 +7.2 71 +10 +10 1013.7 1013.2
15 16.06 В 6
{8}
н/о н/о +12.9 +7.6 70 +11 +11 1013.1 1012.6
16 16.06 В 6
{9}
н/о н/о +12.7 +7.0 68 +10 +10 1012.4 1011.9
17 16.06 В 5
{9}
н/о н/о +13.1 +7.1 67 +11 +11 1011.8 1011.3
18 16.06 В 4
{9}
н/о н/о +12.5 +6.7 68 +11 +11 1011.6 1011.1 +7.8 +13.4
19 16.06 В 4
{7}
н/о н/о +11.3 +6.5 72 +9 +9 1011.3 1010.9
20 16.06 В 5
{7}
н/о н/о +10.5 +6.5 76 +8 +8 1010.9 1010.5
21 16.06 СЗ 1
{7}
н/о н/о +9.9 +5.7 75 +10 +10 1010.6 1010.1
22 16.06 С 2
{4}
н/о н/о +9.4 +6.0 79 +8 +8 1010.3 1009.8
23 16.06 СЗ 2
{4}
н/о н/о +8.4 +5.3 81 +7 +7 1010.1 1009.6
00 17.06 С 2
{7}
н/о н/о +7.8 +5.4 85 +6 +6 1010.0 1009.5
01 17.06 СЗ 2
{3}
н/о н/о +7.6 +5.4 86 +6 +6 1009.9 1009.4
02 17.06 В 1
{2}
н/о н/о +8.9 +5.7 80 +8 +8 1009.8 1009.3
03 17.06 С 1
{3}
н/о н/о +9.5 +6.1 79 +9 +9 1009.7 1009.2
04 17.06 В 3
{5}
н/о н/о +9.9 +6.6 80 +8 +8 1009.7 1009.2
05 17.06 В 3
{5}
н/о н/о +10.8 +6.6 75 +9 +9 1009.9 1009.4
06 17.06 В 3
{5}
н/о н/о +11.5 +6.7 72 +10 +10 1009.8 1009.3 +6.6 +12.5
07 17.06 ЮВ 2
{4}
н/о н/о +13.7 +7.8 68 +13 +13 1009.7 1009.2
08 17.06 ЮВ 2
{4}
н/о н/о +13.8 +8.1 68 +13 +13 1009.9 1009.4
09 17.06 Ю 5
{6}
н/о н/о +13.3 +8.4 72 +11 +11 1010.2 1009.7
10 17.06 ЮЗ 2
{5}
н/о н/о +13.2 +8.6 74 +13 +13 1010.6 1010.1
11 17.06 З 3
{4}
н/о н/о +13.1 +8.6 74 +12 +12 1010.7 1010.3
12 17.06 З 5
{7}
н/о н/о +13.0 +7.8 71 +11 +11 1010.9 1010.4
13 17.06 ЮЗ 3
{6}
н/о н/о +12.6 +8.3 75 +11 +11 1010.9 1010.4
14 17.06 Ю 2
{4}
н/о н/о +12.9 +7.4 69 +12 +12 1011.2 1010.7
15 17.06 З 3
{5}
н/о н/о +13.4 +7.7 68 +12 +12 1011.4 1010.9
16 17.06 ЮВ 4
{5}
н/о н/о +11.7 +6.8 72 +10 +10 1011.4 1011.0
17 17.06 Ю 5
{6}
н/о н/о +11.4 +7.7 78 +9 +9 1011.2 1010.8
18 17.06 Ю 2
{7}
н/о н/о +10.7 +7.4 80 +9 +9 1011.2 1010.7 +10.7 +14.7
19 17.06 ЮВ 3
{5}
н/о н/о +10.5 +7.1 79 +9 +9 1011.3 1010.8
20 17.06 ЮВ 2
{3}
н/о н/о +10.2 +6.8 79 +9 +9 1011.2 1010.7
21 17.06 ЮВ 2
{3}
н/о н/о +9.8 +6.7 81 +8 +8 1011.3 1010.8
22 17.06 В 1
{2}
н/о н/о +9.7 +6.6 81 +9 +9 1011.0 1010.6
23 17.06 штиль 0
{2}
н/о н/о +9.4 +6.9 84 +9 +9 1010.9 1010.4
00 18.06 ЮВ 1
{5}
н/о н/о +9.6 +7.0 84 +9 +9 1010.8 1010.3
01 18.06 С 1
{1}
н/о н/о +9.5 +7.0 84 +9 +9 1010.6 1010.1
02 18.06 З 1
{2}
н/о н/о +9.5 +6.9 84 +9 +9 1010.3 1009.8
03 18.06 З 2
{3}
н/о н/о +9.6 +7.0 84 +8 +8 1010.1 1009.6
04 18.06 ЮЗ 1
{3}
н/о н/о +9.6 +7.0 84 +9 +9 1009.9 1009.4
05 18.06 СЗ 1
{2}
н/о н/о +9.6 +7.0 84 +9 +9 1009.6 1009.1
06 18.06 СЗ 1
{3}
н/о н/о +9.7 +7.2 84 +9 +9 1009.5 1009.0 +9.3 +10.9
07 18.06 штиль 0
{2}
н/о н/о +10.2 +7.2 82 +10 +10 1009.2 1008.7
08 18.06 Ю 1
{3}
н/о н/о +10.5 +7.5 82 +10 +10 1009.1 1008.6
09 18.06 Ю 1
{2}
н/о н/о +10.4 +7.4 82 +10 +10 1009.1 1008.7
10 18.06 Ю 1
{2}
н/о н/о +11.3 +7.5 77 +11 +11 1009.0 1008.5
11 18.06 ЮЗ 1
{3}
н/о н/о +11.8 +7.8 76 +12 +12 1009.0 1008.6
12 18.06 ЮЗ 2
{4}
н/о н/о +11.7 +7.8 77 +11 +11 1008.9 1008.5
13 18.06 З 3
{4}
н/о н/о +11.5 +7.7 77 +10 +10 1009.1 1008.6
14 18.06 З 3
{5}
н/о н/о +11.2 +8.0 81 +9 +9 1009.4 1008.9
15 18.06 З 1
{4}
н/о н/о +10.8 +8.9 88 +10 +10 1009.5 1009.0
16 18.06 З 2
{3}
н/о н/о +10.5 +8.8 89 +9 +9 1009.6 1009.1
17 18.06 Ю 1
{3}
н/о н/о +10.4 +8.4 87 +10 +10 1009.4 1008.9
18 18.06 Ю 2
{5}
н/о н/о +10.4 +9.1 92 +9 +9 1009.1 1008.7 +9.7 +12.5
19 18.06 В 1
{2}
н/о н/о +10.2 +8.7 90 +10 +10 1009.1 1008.6
20 18.06 СВ 1
{2}
н/о н/о +10.1 +8.6 90 +10 +10 1008.9 1008.4
21 18.06 СВ 3
{4}
н/о н/о +9.5 +8.4 93 +7 +7 1008.5 1008.1
22 18.06 В 2
{4}
н/о н/о +9.3 +8.4 94 +7 +7 1008.1 1007.6
23 18.06 СВ 2
{4}
н/о н/о +9.2 +8.0 92 +7 +7 1008.0 1007.5
00 19.06 СВ 2
{4}
н/о н/о +9.2 +8.1 93 +7 +7 1007.8 1007.3
01 19.06 СВ 3
{3}
н/о н/о +9.2 +8.3 94 +7 +7 1007.9 1007.4
02 19.06 С 2
{3}
н/о н/о +9.2 +8.2 93 +7 +7 1007.8 1007.3
03 19.06 СВ 2
{3}
н/о н/о +9.5 +8.5 93 +8 +8 1008.0 1007.5
04 19.06 В 2
{3}
н/о н/о +9.7 +8.4 92 +8 +8 1008.1 1007.6
05 19.06 СВ 1
{3}
н/о н/о +10.0 +8.8 92 +9 +9 1008.0 1007.5
06 19.06 штиль 0
{3}
н/о н/о +10.5 +8.9 90 +10 +10 1008.2 1007.8 +9.0 +10.6
07 19.06 Ю 1
{3}
н/о н/о +10.5 +8.8 89 +10 +10 1008.7 1008.2
08 19.06 ЮЗ 2
{4}
н/о н/о +11.1 +8.5 84 +10 +10 1009.0 1008.5
09 19.06 З 3
{4}
н/о н/о +11.0 +9.0 87 +9 +9 1009.4 1008.9
10 19.06 З 3
{5}
н/о н/о +12.1 +9.2 82 +11 +11 1009.9 1009.4
11 19.06 З 3
{6}
н/о н/о +11.5 +8.3 81 +10 +10 1010.2 1009.8
12 19.06 З 5
{7}
н/о н/о +10.6 +7.7 82 +8 +8 1010.7 1010.2
13 19.06 З 5
{7}
н/о н/о +10.5 +8.2 86 +8 +8 1011.2 1010.7
14 19.06 З 3
{6}
н/о н/о +11.2 +8.1 81 +9 +9 1011.5 1011.1
15 19.06 З 4
{7}
н/о н/о +10.9 +7.9 82 +8 +8 1011.7 1011.2
16 19.06 З 4
{5}
н/о н/о +11.0 +7.6 80 +9 +9 1012.0 1011.5
17 19.06 З 3
{5}
н/о н/о +11.4 +7.6 77 +10 +10 1012.1 1011.6
18 19.06 Ю 2
{7}
н/о н/о +11.1 +7.6 79 +10 +10 1012.0 1011.5 +10.2 +12.7
19 19.06 ЮВ 1
{2}
н/о н/о +11.3 +7.1 75 +11 +11 1012.3 1011.8
20 19.06 ЮВ 1
{2}
н/о н/о +10.8 +7.9 82 +11 +11 1012.5 1012.0
21 19.06 СВ 2
{2}
н/о н/о +10.2 +7.8 85 +9 +9 1012.6 1012.1
22 19.06 СВ 2
{4}
н/о н/о +9.9 +8.1 89 +8 +8 1012.5 1012.1
23 19.06 СВ 3
{4}
н/о н/о +9.9 +8.3 90 +8 +8 1012.6 1012.1
00 20.06 В 3
{4}
н/о н/о +9.9 +8.3 90 +8 +8 1012.7 1012.2
01 20.06 СВ 3
{4}
н/о н/о +9.9 +7.8 87 +8 +8 1012.9 1012.4
02 20.06 СВ 2
{4}
н/о н/о +9.9 +8.0 88 +8 +8 1012.7 1012.2
03 20.06 СВ 3
{4}
н/о н/о +10.1 +8.2 88 +8 +8 1012.6 1012.1
04 20.06 В 3
{5}
н/о н/о +10.9 +8.6 86 +9 +9 1012.3 1011.8
05 20.06 В 3
{5}
н/о н/о +11.2 +8.5 83 +9 +9 1012.0 1011.5
06 20.06 В 5
{6}
н/о н/о +12.2 +8.5 78 +10 +10 1011.7 1011.2 +9.7 +12.5
07 20.06 В 4
{6}
н/о н/о +12.9 +8.6 75 +11 +11 1011.4 1010.9
08 20.06 В 4
{6}
н/о н/о +14.0 +8.8 71 +13 +13 1011.2 1010.7
09 20.06 В 4
{5}
н/о н/о +15.1 +8.7 66 +14 +14 1010.9 1010.4
10 20.06 В 4
{6}
н/о н/о +16.1 +8.7 61 +15 +15 1010.4 1009.9
11 20.06 В 5
{6}
н/о н/о +17.1 +8.7 58 +16 +16 1010.0 1009.5
12 20.06 СВ 5
{7}
н/о н/о +17.0 +8.0 55 +16 +16 1009.3 1008.9
13 20.06 В 5
{7}
н/о н/о +17.6 +8.2 54 +17 +17 1008.9 1008.5
14 20.06 В 5
{7}
н/о н/о +17.9 +8.3 53 +18 +18 1008.5 1008.0
15 20.06 В 5
{8}
н/о н/о +17.0 +8.4 57 +16 +16 1008.0 1007.5
17 20.06 В 6
{8}
н/о н/о +16.5 +9.1 62 +15 +15 1006.7 1006.3
18 20.06 СВ 5
{8}
н/о н/о +16.8 +8.6 58 +16 +16 1006.4 1006.0 +12.2 +18.6
19 20.06 СВ 4
{7}
н/о н/о +15.2 +8.4 64 +14 +14 1006.3 1005.8
20 20.06 СВ 5
{7}
н/о н/о +15.4 +7.7 60 +14 +14 1006.0 1005.5
21 20.06 В 4
{6}
н/о н/о +12.1 +9.0 81 +10 +10 1005.5 1005.0

 

Местоположение метеостанции Стокмаркнес аэропорт (Норвегия): широта 68.58 долгота 15.03 высота над уровнем моря 3 м.

В архиве по умолчанию представлена погода в Стокмаркнес аэропорту за последнюю неделю. Архивные данные за месяц целиком и за предыдущие месяцы, начиная с января 2011 года, Вы можете получить, выбрав интересующий диапазон дат из раскрывающегося списка и нажав кнопку "Ввод!".


*Определитесь, кто Вы:
робот инопланетянин человек

Внимание! Время в таблицах - всемирное. Для получения местного времени необходимо прибавить поправку, которая равна 1 ч.

Смотрите также архив погоды в соседних городах и на ближайших метеорологических станциях:

Погода в Сортланне (Норвегия) (21 км)
Погода в Бё (Норвегия) (25 км)
Погода в Сволваер аэропорту (Норвегия) (40 км)
Погода на Маяке Rotvaer (Норвегия) (44 км)
Погода на Маяке Skrova (Норвегия) (50 км)
Погода в Харстаде (Норвегия) (65 км)
Погода в Аэропорту Харстад/Нарвик (Норвегия) (68 км)
Погода в Драге (Норвегия) (73 км)
Погода в Лекнесе (Норвегия) (74 км)
Погода на Аннёйа (Норвегия) (91 км)

Пояснения к столбцам:

Ветер - указаны скорость ветра в м/с - средняя за 10 мин, порывы в срок и между сроками (в фигурных скобках) и направление, откуда дует ветер: С - северный, СВ - северо-восточный, В - восточный, ЮВ - юго-восточный, Ю - южный, ЮЗ - юго-западный, З - западный, СЗ - северо-западный.
Видимость - горизонтальная дальность видимости в метрах или километрах. При видимости от 1 до 10 км при отсутствии осадков обычно наблюдается дымка, при ухудшении видимости до 1 км и менее - туман. В сухую погоду видимость может ухудшаться дымом, пылью или мглою.
Явления - указаны атмосферные явления, наблюдавшиеся в срок или в последний час перед сроком; фигурными скобками обозначены явления, наблюдавшиеся между сроками (за 1-3 часа до срока); квадратными скобками обозначены град или гололедные отложения с указанием их диаметра в мм.
Облачность - указаны через наклонную черту общая и нижняя облачность в баллах и высота нижней границы облаков в метрах; квадратными скобками обозначены формы облаков: Ci - перистые, Cs - перисто-слоистые, Cc - перисто-кучевые, Ac - высококучевые, As - высокослоистые, Sc - слоисто-кучевые, Ns - слоисто-дождевые, Cu - кучевые, Cb - кучево-дождевые. Подробнее классификацию облаков см. в Атласе облаков (PDF).
T - Температура воздуха - температура, измеренная на высоте 2 м над землей.
Td - Температура точки росы - температура, при понижении до которой содержащийся в воздухе водяной пар достигнет насыщения.
f - Относительная влажность воздуха - влажноcть воздуха, измеренная на высоте 2 м над землей.
Te - Эффективная температура - температура, которую ощущает одетый по сезону человек в тени. Характеристика душности погоды. При расчете учитывается влияние влажности воздуха и скорости ветра на теплоощущения человека.
Tes - Эффективная температура на солнце - температура, которую ощущает человек, с поправкой на солнечный нагрев. Характеристика знойности погоды. Зависит от высоты солнца над горизонтом, облачности и скорости ветра. Ночью, в пасмурную погоду, а также при ветре 12 м/с и более поправка равна нулю.
P - Атмосферное давление - приведенное к уровню моря атмосферное давление.
Po - Атмосферное давление - измеренное на уровне метеостанции атмосферное давление.
Tmin - Минимальная температура - минимум температуры воздуха на высоте 2 м над землей.
Tmax - Максимальная температура - максимум температуры воздуха на высоте 2 м над землей.
R - Количество осадков - Количество выпавших осадков за период времени, мм. При наведении курсора мыши на число - период времени, за который выпало указанное количество осадков.
R24 - Количество осадков - Количество выпавших осадков за 24 часа, мм.
S - Снежный покров - Высота снежного покрова, см. При наведении курсора мыши на число - состояние снежного покрова и степень покрытия местности в баллах.